Regional Weather Roundup
Issued by NWS

Home | Current Version | Previous Version | Text Only | Print | Product List | Glossary On
Versions: 1 2 3 4 5 6 7 8 9 10 11 12 13 14 15 16 17 18 19 20 21 22 23 24 25 26 27 28 29 30 31 32 33 34 35 36 37 38 39 40 41 42 43 44 45 46 47 48 49 50
000
ASUS44 KFWD 201415
RWRTX
NORTH TEXAS HOURLY WEATHER ROUNDUP
NATIONAL WEATHER SERVICE FORT WORTH TX
900 AM CDT WED AUG 20 2014

NOTE: "FAIR" INDICATES FEW OR NO CLOUDS BELOW 12,000 FEET WITH NO
SIGNIFICANT WEATHER AND/OR OBSTRUCTIONS TO VISIBILITY.

TXZ118-119-201500-
DALLAS/FORT WORTH METROPLEX

CITY           SKY/WX    TMP DP  RH WIND       PRES   REMARKS
DFW AIRPORT    PTSUNNY   81  71  71 S15       29.95S
DALLAS LOVE    PTSUNNY   81  72  74 S12G22    29.97R
FTW MEACHAM    CLOUDY    82  71  69 S14       29.95R
DAL-EXECUTIVE  MOSUNNY   81  73  76 S13G22    29.97R
FTW-ALLIANCE   CLOUDY    82  70  66 S9G17     29.95R
FTW-NAS-JRB    CLOUDY    84  69  60 S16       30.00R
FTW-SPINKS     MOSUNNY   82  72  69 S15G24    29.97R
ARLINGTON      PTSUNNY   81  71  71 SE13G20   29.96R
GRAND PRAIRIE  SUNNY     81  70  69 S12G21    29.98R
ADDISON        PTSUNNY   81  72  74 S14G23    29.97R
LANCASTER      MOSUNNY   80  72  76 S7        29.98R
$$

TXZ091>094-102>105-117-120-121-131>134-201500-
NORTH CENTRAL TEXAS

CITY           SKY/WX    TMP DP  RH WIND       PRES   REMARKS
SHRMAN/DENISON MOSUNNY   81  71  72 S15G21    29.97R
GAINESVILLE    PTSUNNY   80  70  71 S14       29.98R
BOWIE          PTSUNNY   78  69  73 SE10      29.97R
BRIDGEPORT     CLOUDY    81  64  56 S10       29.97R
DECATUR        PTSUNNY   75  71  88 SE3       29.98R FOG
DENTON         PTSUNNY   80  70  71 S10       29.96R
MCKINNEY       PTSUNNY   80  73  79 S15       29.97R
GREENVILLE     MOSUNNY   81  72  74 S12       29.99S
ROCKWALL       MOSUNNY   80  74  80 S12       29.97R
TERRELL        PTSUNNY   81  76  84 S15       29.99R
WAXAHACHIE     PTSUNNY   79  71  77 S13G18    29.99R
CLEBURNE       PTSUNNY   81  75  83 S15       29.99R
GRANBURY       MOSUNNY   82  70  65 S13G23    29.98R
$$

TXZ083>090-098>101-113>116-127>130-139>142-154-155-201500-
WESTERN NORTH TEXAS

CITY           SKY/WX    TMP DP  RH WIND       PRES   REMARKS
WICHITA FALLS  MOSUNNY   82  65  56 S17       29.91R
WF-KICKAPOO    MOSUNNY   82  63  52 S13       29.93R
VERNON         SUNNY     82  65  55 S15G21    29.91S
ABILENE        SUNNY     77  65  66 S20       29.97R
ABILENE-DYESS  SUNNY     78  66  67 S25G32    29.94R
BRECKENRIDGE   SUNNY     81  64  56 S16G25    29.95R HAZE
GRAHAM         MOSUNNY   81  64  56 S12G18    29.94R
MINERAL WELLS  MOSUNNY   79  68  69 S14       29.95R
STEPHENVILLE   SUNNY     75  68  78 S9        30.01R
COMANCHE       PTSUNNY   76  69  79 S9        29.98R
BROWNWOOD      MOSUNNY   77  68  73 S12       29.99R
COLEMAN        MOSUNNY   76  67  72 S15       29.98R
BRADY          SUNNY     75  66  73 S12       29.99R
$$

TXZ143>147-156>162-174-175-201500-
CENTRAL TEXAS

CITY           SKY/WX    TMP DP  RH WIND       PRES   REMARKS
WACO           PTSUNNY   80  73  79 S14       29.98R
WACO-TSTC      MOSUNNY   81  73  78 S9        29.98R
WACO-MCGREGOR  CLOUDY    82  72  69 S15       29.99S
HILLSBORO      MOSUNNY   80  72  76 S13G18    29.98S
CORSICANA      MOSUNNY   81  74  79 S13       30.00R
MEXIA          CLOUDY    79  75  89 S8        29.99R
HEARNE           N/A     81  75  82 SE6       30.00R
CAMERON        PTSUNNY   81  76  84 S10       29.98R
TEMPLE         CLOUDY    81  72  74 S15G21    29.98R
KILLEEN        MOSUNNY   81  73  78 S15G22    29.98R
KILLEEN-SKYLRK PTSUNNY   81  70  69 S12       29.98S
FORT HOOD      PTSUNNY   84  73  69 S12       29.98S HX  90
GATESVILLE     SUNNY     79  72  78 S7        30.00S
HAMILTON       MOSUNNY   79  70  74 S14G22    30.00R
LAMPASAS       MOSUNNY   78  74  86 S8        29.99R
$$

TXZ095>097-106>112-122>126-135>138-148>153-164>167-201500-
EAST TEXAS

CITY           SKY/WX    TMP DP  RH WIND       PRES   REMARKS
PARIS          SUNNY     79  70  73 S10       30.01R
SULPHUR SPRNGS PTSUNNY   81  73  76 S13       30.01S
CLARKSVILLE    CLOUDY    77  73  88 S5        30.00S
MOUNT PLEASANT CLOUDY    76  74  93 S6        30.03R
GILMER         PTSUNNY   79  75  89 S9        30.02S
MINEOLA        CLOUDY    81  75  83 S7        30.01R
TYLER          CLOUDY    80  74  81 S14       30.01R
LONGVIEW       CLOUDY    78  73  84 SW12      30.01R
MARSHALL       CLOUDY    78  74  87 S7        30.04R
ATHENS         PTSUNNY   77  73  88 S9        30.00S
PALESTINE      MOSUNNY   79  76  90 SE6       30.02R
JACKSONVILLE   CLOUDY    76  74  96 S8        30.05R FOG
HENDERSON      CLOUDY    76  75  95 SW5       30.04R
NACOGDOCHES    MOSUNNY   77  73  88 S5        30.03R
LUFKIN         SUNNY     80  75  84 SE5       30.02R
$$

SUPPLEMENTAL OBSERVATIONS (CENTRAL)

CITY           SKY/WX    TMP DP  RH WIND       PRES   REMARKS
LAKE TEXOMA      N/A     81  70  69 S9          N/A
CADDO GRASSLND   N/A     81  73  78 S12         N/A
PAT MAYSE LAKE   N/A     77  72  83 SE9         N/A
ATHENS           N/A     81  73  78 S9          N/A
LAKE LIMESTONE   N/A     81  79  94 S6          N/A
MCGREGOR         N/A     82  73  74 S14         N/A
$$

SUPPLEMENTAL OBSERVATIONS (WEST)

CITY           SKY/WX    TMP DP  RH WIND       PRES   REMARKS
MILLERS CREEK    N/A     82  68  61 S18         N/A
LBJ GRASSLAND    N/A     75  70  83 E5G17       N/A
GRANBURY         N/A     82  70  65 S18G24      N/A
HAMBY            N/A     79  64  61 S22         N/A
IVIE RESERVOIR   N/A     79  68  69 SE14        N/A
COLORADO BEND    N/A     79  70  73 S10         N/A
$$

SUPPLEMENTAL OBSERVATIONS (EAST)

CITY           SKY/WX    TMP DP  RH WIND       PRES   REMARKS
CLARKSVILLE      N/A     79  73  83 S9          N/A
CADDO LAKE       N/A     77  73  88 SW2         N/A
GILMER           N/A     81  75  83 SW9         N/A
HENDERSON        N/A     77  72  83 SW8         N/A
LUFKIN           N/A     81  79  94 MISG        N/A
N SABINE NF      N/A     79  77  94 MISG        N/A
S SABINE NF      N/A     82  77  83 SE2         N/A  HX  91
$$

SUPPLEMENTAL OBSERVATIONS ARE A COLLECTION OF AUTOMATED INSTRUMENTS
THAT ARE MAINTAINED BY A VARIETY OF FEDERAL AND STATE AGENCIES.
CERTAIN ELEMENTS...SUCH AS HUMIDITY VALUES AND SUSTAINED WIND
SPEEDS...MAY BE APPROXIMATED.



USA.gov is the U.S. government's official web portal to all federal, state and local government web resources and services.